W2JV-2 Weather Reports


Display with metric or nautical units.
time (UTC)temp
F
wind
direction
speed
MPH
gust
MPH
rain 1hr
in
rain 24hr
in
rain mn
in
humidity
%
barometer
mb
20181115162011 36 330 0.0 3.0 0.27 0.82 0.80 53 1032.8
20181115161012 36 83 2.0 7.0 0.30 0.79 0.77 54 1033.0
20181115160012 35 349 1.0 3.0 0.33 0.75 0.73 53 1033.0
20181115155012 35 112 1.0 5.0 0.38 0.71 0.69 53 1033.2
20181115154012 35 118 1.0 3.0 0.43 0.66 0.64 53 1033.6
20181115153012 35 156 1.0 5.0 0.52 0.61 0.59 52 1033.8
20181115152012 35 25 2.0 6.0 0.53 0.55 0.53 50 1034.2
20181115151012 35 1 1.0 3.0 0.47 0.49 0.47 51 1034.7
20181115150013 34 83 1.0 3.0 0.40 0.42 0.40 51 1035.0
20181115145012 35 113 1.0 3.0 0.31 0.33 0.31 50 1035.0
20181115144012 35 128 0.0 3.0 0.21 0.23 0.21 51 1034.8
20181115143012 35 27 1.0 3.0 0.07 0.09 0.07 50 1034.8
20181115142011 35 140 0.0 1.0 0.00 0.02 0.00 52 1034.7
20181115141011 34 141 1.0 3.0 0.00 0.02 0.00 52 1034.7
20181115140011 34 141 1.0 3.0 0.00 0.02 0.00 52 1034.7
20181115135012 34 170 1.0 3.0 0.00 0.02 0.00 52 1034.5
20181115134011 34 44 0.0 5.0 0.00 0.02 0.00 51 1034.6
20181115133012 34 95 0.0 3.0 0.00 0.02 0.00 51 1034.9
20181115132011 34 347 1.0 3.0 0.00 0.02 0.00 51 1034.9
20181115131012 34 9 0.0 2.0 0.00 0.02 0.00 51 1035.1
20181115130012 33 351 0.0 1.0 0.00 0.02 0.00 51 1035.1
20181115125012 33 355 0.0 2.0 0.00 0.02 0.00 50 1035.4
20181115124012 33 81 0.0 1.0 0.00 0.02 0.00 49 1035.6
20181115123012 33 79 0.0 1.0 0.00 0.02 0.00 51 1035.5
20181115122011 33 96 0.0 2.0 0.00 0.02 0.00 51 1035.2
20181115121012 33 183 0.0 1.0 0.00 0.02 0.00 49 1034.8
20181115120011 33 189 1.0 2.0 0.00 0.02 0.00 52 1034.8
20181115115012 32 185 0.0 2.0 0.00 0.02 0.00 52 1034.8
20181115114011 32 91 0.0 2.0 0.00 0.02 0.00 51 1035.1
20181115113011 32 51 0.0 3.0 0.00 0.02 0.00 51 1035.1
20181115112012 32 148 1.0 2.0 0.00 0.02 0.00 51 1034.7
20181115111011 32 152 1.0 3.0 0.00 0.02 0.00 50 1035.2
20181115110013 32 189 0.0 2.0 0.00 0.02 0.00 48 1034.7
20181115105012 32 203 0.0 3.0 0.00 0.02 0.00 52 1034.9
20181115104012 33 68 0.0 2.0 0.00 0.02 0.00 51 1035.3
20181115103013 33 72 0.0 1.0 0.00 0.02 0.00 53 1035.1
20181115102011 33 85 0.0 1.0 0.00 0.02 0.00 53 1035.4
20181115101011 33 85 0.0 2.0 0.00 0.02 0.00 56 1035.6
20181115100012 33 73 0.0 1.0 0.00 0.02 0.00 55 1035.7
20181115095012 33 337 0.0 3.0 0.00 0.02 0.00 52 1035.6
20181115094011 33 12 1.0 3.0 0.00 0.02 0.00 53 1035.5
20181115093012 33 20 2.0 5.0 0.00 0.02 0.00 52 1035.5
20181115092012 32 329 0.0 2.0 0.00 0.02 0.00 54 1035.3
20181115091012 32 12 1.0 5.0 0.00 0.02 0.00 50 1035.0
20181115090012 32 1 1.0 3.0 0.00 0.02 0.00 50 1035.4
20181115085012 32 22 1.0 3.0 0.00 0.02 0.00 50 1035.7
20181115084012 32 22 1.0 5.0 0.00 0.02 0.00 51 1035.9
20181115083012 32 19 1.0 3.0 0.00 0.02 0.00 48 1036.3
20181115082011 32 1 2.0 3.0 0.00 0.02 0.00 49 1036.0
20181115081012 32 2 1.0 3.0 0.00 0.02 0.00 48 1036.1
20181115080012 32 2 0.0 2.0 0.00 0.02 0.00 51 1036.1
20181115075012 32 2 1.0 2.0 0.00 0.02 0.00 49 1036.1
20181115074012 32 358 2.0 3.0 0.00 0.02 0.00 47 1035.9
20181115073011 32 11 2.0 3.0 0.00 0.03 0.00 48 1035.6
20181115072011 32 41 2.0 3.0 0.00 0.03 0.00 47 1035.8
20181115071012 32 150 1.0 2.0 0.00 0.03 0.00 50 1036.0
20181115070014 32 175 1.0 3.0 0.00 0.03 0.00 46 1035.5
20181115065012 32 332 1.0 5.0 0.00 0.03 0.00 45 1035.6
20181115064011 32 58 1.0 3.0 0.00 0.03 0.00 46 1035.7
20181115063011 32 12 0.0 7.0 0.00 0.03 0.00 48 1036.1
20181115062011 32 0 2.0 6.0 0.00 0.03 0.00 48 1035.6
20181115061011 32 22 2.0 7.0 0.00 0.03 0.00 48 1035.8
20181115060012 32 357 1.0 3.0 0.00 0.03 0.00 49 1036.3
20181115055012 32 24 2.0 3.0 0.00 0.03 0.00 49 1035.4
20181115054012 32 37 2.0 5.0 0.00 0.03 0.00 45 1035.5
20181115053012 32 29 1.0 5.0 0.00 0.03 0.00 45 1036.0
20181115052012 32 349 0.0 3.0 0.00 0.03 0.00 44 1035.9
20181115051012 32 16 2.0 6.0 0.00 0.03 0.00 45 1035.9
20181115050011 32 353 2.0 3.0 0.00 0.03 0.00 44 1035.6
20181115045012 32 18 4.0 6.0 0.00 0.03 0.03 42 1035.8
20181115044012 32 41 3.0 12.0 0.00 0.03 0.03 40 1035.7
20181115043011 32 38 3.0 8.0 0.00 0.03 0.03 41 1035.7
20181115042011 32 18 5.0 7.0 0.00 0.03 0.03 39 1035.8
20181115041012 32 11 2.0 5.0 0.00 0.03 0.03 44 1036.0
20181115040011 32 6 4.0 8.0 0.00 0.03 0.03 39 1035.8
20181115035012 32 9 4.0 7.0 0.00 0.03 0.03 39 1036.1
20181115034013 32 8 5.0 8.0 0.00 0.03 0.03 39 1036.3
20181115033012 32 2 3.0 9.0 0.00 0.04 0.03 40 1036.4
20181115032012 33 28 3.0 6.0 0.01 0.04 0.03 43 1036.3
20181115031012 33 12 3.0 7.0 0.01 0.04 0.03 41 1036.1
20181115030011 33 351 3.0 6.0 0.01 0.04 0.03 42 1035.7
20181115025011 33 10 3.0 6.0 0.01 0.04 0.03 46 1035.6
20181115024012 33 2 1.0 6.0 0.01 0.04 0.03 46 1035.6
20181115023012 33 358 3.0 7.0 0.01 0.04 0.03 43 1034.9
20181115022012 33 18 2.0 5.0 0.00 0.03 0.02 44 1035.1
20181115021011 33 3 2.0 3.0 0.00 0.03 0.02 46 1034.8
20181115020012 33 28 3.0 6.0 0.00 0.03 0.02 45 1034.8
20181115015012 33 15 2.0 3.0 0.00 0.03 0.02 45 1034.5
20181115014012 33 20 2.0 9.0 0.00 0.03 0.02 45 1034.4
20181115013011 33 23 3.0 7.0 0.00 0.03 0.02 45 1034.1
20181115012012 34 26 3.0 8.0 0.00 0.03 0.02 44 1034.3
20181115011012 34 32 3.0 6.0 0.00 0.03 0.02 44 1034.2
20181115010012 34 24 3.0 6.0 0.00 0.03 0.02 44 1034.1
20181115005012 34 353 3.0 7.0 0.00 0.03 0.02 44 1033.9
20181115004012 34 46 2.0 6.0 0.00 0.03 0.02 45 1033.9
20181115003011 35 32 2.0 6.0 0.00 0.03 0.02 46 1033.9
20181115002012 35 15 3.0 8.0 0.00 0.03 0.02 43 1033.7
20181115001011 35 356 2.0 6.0 0.00 0.03 0.02 42 1033.7
20181115000012 35 20 4.0 7.0 0.00 0.03 0.02 43 1033.5
20181114235012 35 15 2.0 6.0 0.00 0.03 0.02 42 1033.4
20181114234011 35 6 2.0 6.0 0.00 0.03 0.02 40 1033.4
20181114233011 35 11 3.0 7.0 0.00 0.03 0.02 41 1033.4
20181114232011 36 3 5.0 10.0 0.00 0.03 0.02 41 1033.2
20181114231011 36 12 3.0 7.0 0.00 0.03 0.02 42 1033.0
20181114230012 36 5 2.0 3.0 0.00 0.03 0.02 41 1033.1
20181114225012 36 336 2.0 6.0 0.00 0.03 0.02 41 1032.9
20181114224011 36 346 3.0 5.0 0.00 0.03 0.02 40 1032.6
20181114223011 36 5 3.0 12.0 0.00 0.03 0.02 39 1032.4
20181114222011 36 348 5.0 9.0 0.00 0.03 0.02 39 1032.4
20181114221012 36 312 4.0 9.0 0.00 0.03 0.02 38 1032.5
20181114220011 36 350 4.0 7.0 0.00 0.03 0.02 38 1032.1
20181114215011 36 330 2.0 6.0 0.00 0.03 0.02 42 1031.8
20181114214012 37 338 3.0 6.0 0.00 0.03 0.02 39 1031.7
20181114213012 37 9 3.0 9.0 0.00 0.03 0.02 40 1031.6
20181114212011 37 5 3.0 8.0 0.00 0.03 0.02 41 1031.2
20181114211012 37 11 3.0 7.0 0.00 0.03 0.02 40 1031.2
20181114210013 37 330 3.0 7.0 0.00 0.03 0.02 38 1031.3
20181114205011 37 3 3.0 8.0 0.00 0.04 0.02 39 1031.0
20181114204011 37 340 5.0 9.0 0.00 0.04 0.02 36 1030.8
20181114203012 38 346 4.0 9.0 0.00 0.04 0.02 37 1030.7
20181114202011 38 331 4.0 10.0 0.01 0.04 0.02 37 1030.3
20181114201012 38 26 5.0 9.0 0.01 0.04 0.02 37 1030.3
20181114200011 39 344 5.0 10.0 0.01 0.04 0.02 37 1030.0
20181114195011 38 342 4.0 9.0 0.01 0.04 0.02 38 1029.9
20181114194011 38 349 4.0 9.0 0.01 0.04 0.02 36 1029.8
20181114193011 38 0 6.0 13.0 0.01 0.04 0.02 35 1029.7
20181114192012 39 351 4.0 14.0 0.00 0.03 0.01 35 1029.6
20181114191011 39 322 5.0 10.0 0.00 0.03 0.01 38 1029.5
20181114190013 39 343 3.0 10.0 0.00 0.03 0.01 39 1029.4
20181114185011 39 340 6.0 10.0 0.00 0.03 0.01 39 1029.4
20181114184011 39 24 3.0 8.0 0.00 0.03 0.01 39 1029.2
20181114183011 39 341 5.0 12.0 0.00 0.04 0.01 40 1029.1
20181114182012 39 352 4.0 12.0 0.00 0.04 0.01 40 1029.1
20181114181012 39 354 4.0 13.0 0.00 0.04 0.01 42 1029.1
20181114180011 39 342 3.0 8.0 0.00 0.04 0.01 42 1029.0
20181114175011 40 38 5.0 10.0 0.00 0.04 0.01 43 1029.1
20181114174011 40 316 5.0 12.0 0.00 0.04 0.01 44 1028.8
20181114173011 40 336 3.0 9.0 0.00 0.04 0.01 43 1028.8
20181114172011 40 354 5.0 9.0 0.00 0.04 0.01 43 1028.7
20181114171011 40 28 5.0 9.0 0.00 0.04 0.01 43 1028.7
20181114170011 40 358 5.0 12.0 0.00 0.04 0.01 38 1028.7
20181114165011 40 341 5.0 9.0 0.00 0.04 0.01 35 1028.5
20181114164011 40 307 6.0 12.0 0.00 0.04 0.01 38 1028.6
20181114163011 40 5 6.0 12.0 0.00 0.04 0.01 37 1028.8